TY-1 (41844 NORAD) Tracking and Keplerian Element Data

This shows tracking and keplerian element data for the satellite.

Feedback or suggestion? Click here.




ElementValue
Catalog41844
NameTY-1
Epoch Orbit13435
Epoch Day101.82392451
Epoch Year2019
RAAN109.9982
Inclination97.4072
Eccentricity0.0017189
Argument of Perigee69.4837
Mean Anonmoly54.3489
Mean Motion15.24131339
Decay Rate2.287E-05
L11 41844U 16066D 19101.82392451 .00002287 00000-0 96652-4 0 9997
L22 41844 97.4072 109.9982 0017189 69.4837 54.3489 15.24131339134354

Live tracking and technical data element details for TY-1 (NORAD 41844). TY-1 can be tracked NOW for your location showing map with azimuth and elevation plus other details from your city location.

Track the satellite on the map from your city or location and see movement details for azimuth, elevation, latitude, longitude, range, height, and movement on the map or in text.







IsCatalogInMostPopularTable: catalog: 41844, numindb: 191
Update: records affected: 1



GetName: 41844 TY-1

Hit Count: updated at: Sat, 20 Apr 2019 00:12:22 GMT